GEESAT-3 08

Last updated on Tue Oct 01 2024 00:02:04 GMT+0000 (Coordinated Universal Time)

1 61018U 24159H 24274.31238955 .00020007 00000+0 16194-2 0 9993 2 61018 50.0043 123.6007 0017214 70.1622 290.1177 14.99569273 3658
UTC large
Height (km)
Speed (km/s)
/
Latitude / Longitude
Inclination (degrees)
Orbital Period (minutes)
Azimuth
Elevation
Range (km)
Doppler Factor

Next 0 passes for location: London (51.5072 / 0.1276)

Sorry there are no passes over London.